GW6248 Weather Reports


time (UTC)temp
C
wind
direction
speed
KPH
gust
KPH
rain 1hr
cm
rain 24hr
cm
rain mn
cm
humidity
%
barometer
mb
20260506011003 3 8 1.6 3.2 0.00 0.00 0.00 94 1014.7
20260506010503 3 349 1.6 3.2 0.00 0.00 0.00 94 1014.7
20260506010003 3 329 1.6 3.2 0.00 0.00 0.00 94 1014.8
20260506005503 4 328 1.6 3.2 0.00 0.00 0.00 94 1014.8
20260506005003 3 322 1.6 3.2 0.00 0.00 0.00 94 1014.8
20260506004504 4 332 1.6 3.2 0.00 0.00 0.00 93 1014.6
20260506004003 4 348 0.0 3.2 0.00 0.00 0.00 93 1014.7
20260506003717 4 331 0.0 3.2 0.00 0.00 0.00 93 1014.7
20260506003003 4 333 1.6 3.2 0.00 0.00 0.00 93 1014.9
20260506002503 4 335 1.6 3.2 0.00 0.00 0.00 93 1014.8
20260506002216 4 325 1.6 3.2 0.00 0.00 0.00 93 1015.0
20260506001503 4 338 1.6 3.2 0.00 0.00 0.00 92 1014.7
20260506001003 5 343 1.6 3.2 0.00 0.00 0.00 92 1014.9
20260506000503 5 345 0.0 3.2 0.00 0.00 0.00 92 1014.8
20260506000219 5 336 0.0 3.2 0.00 0.00 0.00 92 1014.9
20260505235503 5 299 0.0 3.2 0.00 0.00 0.00 92 1014.9
20260505235003 5 305 0.0 3.2 0.00 0.00 0.00 92 1014.9
20260505234717 5 316 0.0 3.2 0.00 0.00 0.00 92 1014.9
20260505234003 5 318 0.0 1.6 0.00 0.00 0.00 92 1015.0
20260505233717 5 331 0.0 1.6 0.00 0.00 0.00 92 1014.7
20260505233218 5 310 0.0 3.2 0.00 0.00 0.00 91 1014.9
20260505232503 5 308 0.0 3.2 0.00 0.00 0.00 91 1014.9
20260505232218 5 311 0.0 3.2 0.00 0.00 0.00 91 1014.8
20260505231503 5 302 0.0 3.2 0.00 0.00 0.00 90 1015.0
20260505231003 5 310 0.0 3.2 0.00 0.00 0.00 90 1014.9
20260505230503 5 319 1.6 3.2 0.00 0.00 0.00 89 1014.9
20260505230003 5 310 0.0 3.2 0.00 0.00 0.00 89 1014.7
20260505225503 5 304 0.0 3.2 0.00 0.00 0.00 88 1014.9
20260505225003 5 335 0.0 3.2 0.00 0.00 0.00 87 1015.0
20260505224503 5 339 0.0 3.2 0.00 0.00 0.00 87 1014.8
20260505224003 6 333 0.0 3.2 0.00 0.00 0.00 87 1015.0
20260505223503 6 324 0.0 3.2 0.00 0.00 0.00 86 1015.1
20260505223003 6 329 1.6 3.2 0.00 0.00 0.00 85 1014.9
20260505222717 6 329 1.6 3.2 0.00 0.00 0.00 85 1014.9
20260505222003 6 330 1.6 3.2 0.00 0.00 0.00 84 1015.0
20260505221503 6 319 1.6 3.2 0.00 0.00 0.00 83 1014.9
20260505221003 6 318 1.6 3.2 0.00 0.00 0.00 84 1015.0
20260505220503 7 318 1.6 3.2 0.00 0.00 0.00 83 1014.8
20260505220003 7 309 0.0 3.2 0.00 0.00 0.00 83 1014.9
20260505215503 7 306 1.6 3.2 0.00 0.00 0.00 83 1014.8
20260505215003 7 308 1.6 3.2 0.00 0.00 0.00 82 1015.0
20260505214503 7 310 1.6 4.8 0.00 0.00 0.00 81 1014.9
20260505214217 7 310 1.6 4.8 0.00 0.00 0.00 81 1015.0
20260505213503 7 319 1.6 4.8 0.00 0.00 0.00 81 1014.9
20260505213217 7 319 1.6 4.8 0.00 0.00 0.00 81 1015.1
20260505212503 7 332 1.6 4.8 0.00 0.00 0.00 80 1015.0
20260505212217 7 342 1.6 3.2 0.00 0.00 0.00 80 1014.6
20260505211503 8 349 1.6 3.2 0.00 0.00 0.00 81 1014.6
20260505211003 8 338 0.0 3.2 0.00 0.00 0.00 80 1014.9
20260505210503 8 316 0.0 3.2 0.00 0.00 0.00 79 1015.0
20260505210217 8 315 1.6 3.2 0.00 0.00 0.00 79 1014.9
20260505205503 8 326 1.6 3.2 0.00 0.00 0.00 77 1014.8
20260505205003 8 347 1.6 3.2 0.00 0.00 0.00 76 1014.5
20260505204503 9 349 1.6 3.2 0.00 0.00 0.00 76 1014.5
20260505204003 9 336 1.6 3.2 0.00 0.00 0.00 75 1014.4
20260505203718 9 336 1.6 3.2 0.00 0.00 0.00 75 1014.6
20260505203003 9 346 1.6 3.2 0.00 0.00 0.00 75 1014.4
20260505202503 10 330 0.0 3.2 0.00 0.00 0.00 75 1014.6
20260505202003 10 316 1.6 3.2 0.00 0.00 0.00 74 1014.3
20260505201503 10 316 0.0 3.2 0.00 0.00 0.00 73 1014.7
20260505201003 10 319 1.6 3.2 0.00 0.00 0.00 74 1014.3
20260505200503 10 323 1.6 3.2 0.00 0.00 0.00 72 1014.3
20260505200003 10 326 0.0 3.2 0.00 0.00 0.00 73 1014.3
20260505195503 10 316 1.6 6.4 0.00 0.00 0.00 72 1014.4
20260505195003 10 310 1.6 6.4 0.00 0.00 0.00 72 1014.1
20260505194503 10 308 1.6 4.8 0.00 0.00 0.00 72 1014.2
20260505194003 10 303 1.6 3.2 0.00 0.00 0.00 71 1014.0
20260505193503 10 291 1.6 6.4 0.00 0.00 0.00 69 1014.2
20260505193003 10 287 1.6 6.4 0.00 0.00 0.00 68 1014.2
20260505192503 10 304 1.6 4.8 0.00 0.00 0.00 70 1014.1
20260505192003 11 309 1.6 4.8 0.00 0.00 0.00 71 1014.1
20260505191503 11 301 1.6 3.2 0.00 0.00 0.00 70 1014.3
20260505191003 11 304 1.6 3.2 0.00 0.00 0.00 69 1014.2
20260505190503 11 308 1.6 3.2 0.00 0.00 0.00 69 1014.0
20260505190003 11 322 1.6 3.2 0.00 0.00 0.00 67 1013.9
20260505185503 11 327 1.6 3.2 0.00 0.00 0.00 68 1013.9
20260505185003 11 326 1.6 3.2 0.00 0.00 0.00 70 1014.0
20260505184503 11 340 1.6 3.2 0.00 0.00 0.00 69 1013.9
20260505184003 11 337 1.6 3.2 0.00 0.00 0.00 67 1014.0
20260505183717 11 328 1.6 3.2 0.00 0.00 0.00 70 1013.7
20260505183003 11 312 1.6 6.4 0.00 0.00 0.00 70 1014.0
20260505182503 11 302 3.2 8.0 0.00 0.00 0.00 66 1013.9
20260505182003 11 309 1.6 8.0 0.00 0.00 0.00 65 1013.9
20260505181503 11 320 1.6 8.0 0.00 0.00 0.00 69 1013.9
20260505181003 11 327 1.6 3.2 0.00 0.00 0.00 72 1014.0
20260505180503 11 330 0.0 3.2 0.00 0.00 0.00 71 1014.1
20260505180003 11 342 0.0 3.2 0.00 0.00 0.00 70 1013.9
20260505175504 11 329 1.6 3.2 0.00 0.00 0.00 68 1013.9
20260505175003 11 327 1.6 3.2 0.00 0.00 0.00 65 1013.8
20260505174503 11 341 1.6 3.2 0.00 0.00 0.00 68 1013.9
20260505174003 12 345 1.6 3.2 0.00 0.00 0.00 67 1014.1
20260505173503 12 338 1.6 3.2 0.00 0.00 0.00 67 1014.0
20260505173218 12 337 1.6 3.2 0.00 0.00 0.00 66 1013.8
20260505172717 12 341 1.6 3.2 0.00 0.00 0.00 65 1014.0
20260505172218 12 319 1.6 3.2 0.00 0.00 0.00 67 1014.1
20260505171503 12 299 1.6 4.8 0.00 0.00 0.00 65 1013.8
20260505171003 12 332 1.6 4.8 0.00 0.00 0.00 67 1013.9
20260505170503 11 327 1.6 3.2 0.00 0.00 0.00 67 1013.9
20260505170218 12 309 1.6 4.8 0.00 0.00 0.00 67 1014.0
20260505165503 12 300 1.6 4.8 0.00 0.00 0.00 66 1014.0
20260505165003 12 310 1.6 3.2 0.00 0.00 0.00 67 1014.0
20260505164503 12 305 1.6 6.4 0.00 0.00 0.00 66 1014.0
20260505164217 12 304 1.6 6.4 0.00 0.00 0.00 65 1014.0
20260505163503 11 318 1.6 3.2 0.00 0.00 0.00 66 1014.0
20260505163003 12 297 1.6 3.2 0.00 0.00 0.00 65 1014.2
20260505162503 12 292 1.6 3.2 0.00 0.00 0.00 67 1013.9
20260505162003 12 278 1.6 4.8 0.00 0.00 0.00 65 1014.1
20260505161503 11 278 1.6 4.8 0.00 0.00 0.00 65 1014.2
20260505161003 12 299 1.6 3.2 0.00 0.00 0.00 67 1014.4
20260505160718 12 281 1.6 4.8 0.00 0.00 0.00 67 1014.2
20260505160217 12 271 1.6 4.8 0.00 0.00 0.00 66 1014.0
20260505153003 12 352 1.6 6.4 0.00 0.00 0.00 70 1014.2
20260505152504 12 349 1.6 6.4 0.00 0.00 0.00 64 1014.0
20260505152217 12 275 1.6 4.8 0.00 0.00 0.00 64 1014.3
20260505151503 12 25 1.6 4.8 0.00 0.00 0.00 63 1014.1
20260505151217 12 269 1.6 6.4 0.00 0.00 0.00 65 1014.2
20260505150503 12 272 1.6 6.4 0.00 0.00 0.00 66 1014.3
20260505140503 12 347 1.6 3.2 0.00 0.00 0.00 65 1014.2
20260505130218 12 263 1.6 6.4 0.00 0.00 0.00 62 1014.2
20260505125003 12 257 1.6 6.4 0.00 0.00 0.00 64 1014.0
20260505124717 12 244 1.6 6.4 0.00 0.00 0.00 62 1014.2
20260505124004 12 220 3.2 9.7 0.00 0.00 0.00 60 1014.4
20260505123503 12 203 4.8 9.7 0.00 0.00 0.00 61 1014.3
20260505123218 12 195 3.2 9.7 0.00 0.00 0.00 60 1014.3
20260505122717 12 204 3.2 8.0 0.00 0.00 0.00 60 1014.3
20260505122003 12 202 3.2 8.0 0.00 0.00 0.00 61 1014.2
20260505121503 13 198 3.2 8.0 0.00 0.00 0.00 58 1014.3
20260505121003 13 228 3.2 8.0 0.00 0.00 0.00 55 1014.4
20260505120503 13 235 3.2 6.4 0.00 0.00 0.00 54 1014.1
20260505120003 12 229 3.2 6.4 0.00 0.00 0.00 57 1014.3
20260505115503 12 235 1.6 6.4 0.00 0.00 0.00 55 1014.5
20260505115003 12 260 3.2 6.4 0.00 0.00 0.00 59 1014.3
20260505114503 12 241 4.8 9.7 0.00 0.00 0.00 57 1014.3
20260505114218 12 234 3.2 9.7 0.00 0.00 0.00 59 1014.4
20260505113503 12 292 1.6 6.4 0.00 0.00 0.00 59 1014.3
20260505113003 12 217 3.2 6.4 0.00 0.00 0.00 60 1014.5
20260505112503 12 230 3.2 6.4 0.00 0.00 0.00 60 1014.4
20260505112003 12 276 1.6 4.8 0.00 0.00 0.00 61 1014.7
20260505111503 12 318 1.6 3.2 0.00 0.00 0.00 58 1014.5
20260505111003 12 296 1.6 3.2 0.00 0.00 0.00 61 1014.7
20260505110503 12 260 1.6 3.2 0.00 0.00 0.00 60 1014.6
20260505110217 12 289 1.6 3.2 0.00 0.00 0.00 63 1014.8
20260505102003 11 343 1.6 3.2 0.00 0.00 0.00 76 1014.8
20260505101503 11 324 0.0 3.2 0.00 0.00 0.00 77 1015.1
20260505101003 11 279 0.0 3.2 0.00 0.00 0.00 72 1015.0
20260505100718 11 315 0.0 3.2 0.00 0.00 0.00 72 1015.1
20260505100003 11 337 0.0 3.2 0.00 0.00 0.00 76 1014.9
20260505095718 11 336 0.0 3.2 0.00 0.00 0.00 76 1014.9
20260505095003 11 357 0.0 6.4 0.00 0.00 0.00 76 1015.0
20260505094503 10 264 1.6 6.4 0.00 0.00 0.00 75 1015.1
20260505094217 10 259 1.6 3.2 0.00 0.00 0.00 74 1014.9
20260505093503 10 266 0.0 3.2 0.00 0.00 0.00 76 1014.9
20260505093003 10 298 0.0 3.2 0.00 0.00 0.00 78 1015.2
20260505092503 10 285 0.0 4.8 0.00 0.00 0.00 80 1015.4
20260505092003 10 275 1.6 4.8 0.00 0.00 0.00 82 1015.1
20260505091718 9 269 1.6 4.8 0.00 0.00 0.00 82 1015.3
20260505091003 9 261 1.6 3.2 0.00 0.00 0.00 83 1015.2
20260505090718 9 259 1.6 4.8 0.00 0.00 0.00 84 1015.2
20260505090218 9 256 1.6 4.8 0.00 0.00 0.00 85 1015.6
20260505085717 8 265 1.6 4.8 0.00 0.00 0.00 84 1015.1
20260505085003 8 275 1.6 4.8 0.00 0.00 0.00 86 1015.1
20260505084503 8 265 1.6 4.8 0.00 0.00 0.00 86 1015.2
20260505084003 8 270 1.6 4.8 0.00 0.00 0.00 87 1015.4
20260505083717 8 274 1.6 4.8 0.00 0.00 0.00 88 1015.6
20260505083003 7 267 1.6 4.8 0.00 0.00 0.00 88 1015.5
20260505082503 7 264 1.6 4.8 0.00 0.00 0.00 89 1015.4
20260505082216 7 267 1.6 4.8 0.00 0.00 0.00 89 1015.2
20260505081504 7 295 1.6 3.2 0.00 0.00 0.00 90 1015.3
20260505081003 7 300 1.6 3.2 0.00 0.00 0.00 89 1015.4
20260505080503 7 283 1.6 3.2 0.00 0.00 0.00 90 1015.3
20260505080003 7 281 1.6 3.2 0.00 0.00 0.00 89 1015.3
20260505075503 7 357 1.6 3.2 0.00 0.00 0.00 90 1015.3
20260505075218 7 30 1.6 3.2 0.00 0.00 0.00 90 1015.2
20260505074503 7 29 0.0 3.2 0.00 0.00 0.00 90 1015.2
20260505074218 7 32 1.6 4.8 0.00 0.00 0.00 90 1015.0
20260505073503 7 351 1.6 4.8 0.00 0.00 0.00 90 1015.3
20260505073218 7 287 1.6 4.8 0.00 0.00 0.00 90 1015.5
20260505072503 7 320 1.6 3.2 0.00 0.00 0.00 90 1015.3
20260505072003 7 316 1.6 3.2 0.00 0.00 0.00 90 1015.3
20260505071503 7 319 1.6 4.8 0.00 0.00 0.00 91 1015.4
20260505071003 7 325 1.6 4.8 0.00 0.00 0.00 92 1015.5
20260505070503 6 358 1.6 4.8 0.00 0.00 0.00 92 1015.4
20260505070218 6 22 1.6 4.8 0.00 0.00 0.00 93 1015.5
20260505065503 6 32 1.6 4.8 0.00 0.00 0.00 93 1015.4
20260505065003 6 34 1.6 4.8 0.00 0.00 0.00 94 1015.6
20260505064503 5 28 1.6 3.2 0.00 0.00 0.00 95 1015.7
20260505064218 5 22 1.6 3.2 0.00 0.00 0.00 95 1015.7
20260505063716 5 10 1.6 4.8 0.00 0.00 0.00 96 1015.6
20260505063003 5 20 1.6 4.8 0.00 0.00 0.00 97 1015.6
20260505062719 5 21 1.6 4.8 0.00 0.00 0.00 97 1015.5
20260505062003 5 359 1.6 4.8 0.00 0.00 0.00 97 1015.6
20260505061503 5 325 1.6 3.2 0.00 0.00 0.00 97 1015.5
20260505061004 4 325 1.6 3.2 0.00 0.00 0.00 97 1015.6
20260505060503 4 327 1.6 4.8 0.00 0.00 0.00 97 1015.7
20260505060003 4 316 1.6 4.8 0.00 0.00 0.00 97 1015.7
20260505055503 3 309 1.6 4.8 0.00 0.00 0.00 97 1015.8
20260505055003 3 318 1.6 4.8 0.00 0.00 0.00 97 1015.7
20260505054503 3 331 1.6 4.8 0.00 0.00 0.00 97 1015.5
20260505054003 3 332 1.6 3.2 0.00 0.00 0.00 97 1015.7
20260505053503 3 344 1.6 3.2 0.00 0.00 0.00 97 1015.6
20260505053003 3 335 1.6 4.8 0.00 0.00 0.00 97 1015.7
20260505052503 3 313 1.6 4.8 0.00 0.00 0.00 97 1015.6
20260505052003 3 337 1.6 4.8 0.00 0.00 0.00 97 1015.6
20260505051718 3 350 1.6 3.2 0.00 0.00 0.00 97 1015.5
20260505051003 3 347 1.6 3.2 0.00 0.00 0.00 97 1015.5
20260505050503 3 343 1.6 3.2 0.00 0.00 0.00 97 1015.6
20260505041503 3 8 1.6 3.2 0.00 0.00 0.00 96 1015.3
20260505041003 3 350 1.6 3.2 0.00 0.00 0.00 96 1015.1
20260505040718 3 334 1.6 3.2 0.00 0.00 0.00 96 1015.5
20260505040004 3 338 1.6 3.2 0.00 0.00 0.00 96 1015.3
20260505035503 3 322 1.6 3.2 0.00 0.00 0.00 96 1015.3
20260505035003 4 316 1.6 3.2 0.00 0.00 0.00 96 1015.3
20260505034503 4 315 1.6 3.2 0.00 0.00 0.00 96 1015.4
20260505034003 4 318 0.0 3.2 0.00 0.00 0.00 96 1015.4
20260505033717 4 323 0.0 3.2 0.00 0.00 0.00 96 1015.3
20260505033003 4 331 0.0 3.2 0.00 0.00 0.00 96 1015.2
20260505032503 4 348 0.0 3.2 0.00 0.00 0.00 96 1015.3
20260505032003 4 4 0.0 3.2 0.00 0.00 0.00 96 1015.4
20260505031503 5 357 0.0 3.2 0.00 0.00 0.00 96 1015.5
20260505031003 5 324 0.0 3.2 0.00 0.00 0.00 96 1015.3
20260505030503 5 315 0.0 3.2 0.00 0.00 0.00 96 1015.3
20260505030004 5 323 1.6 3.2 0.00 0.00 0.00 95 1015.2
20260505025503 5 321 1.6 3.2 0.00 0.00 0.00 95 1015.2
20260505025003 5 317 1.6 3.2 0.00 0.00 0.00 95 1015.0
20260505024503 5 328 1.6 3.2 0.00 0.00 0.00 95 1015.3
20260505024003 5 335 1.6 3.2 0.00 0.00 0.00 95 1015.1
20260505023717 5 334 1.6 3.2 0.00 0.00 0.00 95 1015.2
20260505023003 5 338 0.0 3.2 0.00 0.00 0.00 95 1015.2
20260505022503 5 334 0.0 3.2 0.00 0.00 0.00 94 1015.2
20260505022003 5 329 1.6 3.2 0.00 0.00 0.00 94 1015.2
20260505021717 5 323 0.0 3.2 0.00 0.00 0.00 94 1015.3
20260505021003 5 326 0.0 1.6 0.00 0.00 0.00 94 1015.4
20260505020503 5 306 0.0 3.2 0.00 0.00 0.00 94 1015.2
20260505020003 5 300 0.0 3.2 0.00 0.00 0.00 94 1015.3
20260505015503 5 318 0.0 3.2 0.00 0.00 0.00 94 1015.2
20260505015218 5 321 0.0 3.2 0.00 0.00 0.00 93 1015.5
20260505014503 6 344 0.0 3.2 0.00 0.00 0.00 93 1015.4
20260505014003 6 353 0.0 3.2 0.00 0.00 0.00 93 1015.2
20260505013717 6 348 0.0 1.6 0.00 0.00 0.00 93 1015.5
20260505013003 6 325 0.0 3.2 0.00 0.00 0.00 93 1015.5
20260505012503 6 354 0.0 3.2 0.00 0.00 0.00 92 1015.5
20260505012003 6 331 0.0 3.2 0.00 0.00 0.00 92 1015.6